Regional Weather Roundup
Issued by NWS Newport/Morehead, NC

Home | Current Version | Previous Version | Text Only | Print | Product List | Glossary On
Versions: 1 2 3 4 5 6 7 8 9 10 11 12 13 14 15 16 17 18 19 20 21 22 23 24 25 26 27 28 29 30 31 32 33 34 35 36 37 38 39 40 41 42 43 44 45 46 47 48 49 50
000
ASUS42 KMHX 231225
RWRMHX
WEATHER ROUNDUP FOR EASTERN NORTH CAROLINA
NATIONAL WEATHER SERVICE NEWPORT/MOREHEAD CITY NC
700 AM EST THU FEB 23 2017

NOTE: "FAIR" INDICATES FEW OR NO CLOUDS BELOW 12,000 FEET
WITH NO SIGNIFICANT WEATHER AND/OR OBSTRUCTIONS TO VISIBILITY

NCZ015>017-031-032-045>047-102-103-231300-
NORTH COAST

CITY           SKY/WX    TMP DP  RH WIND       PRES   REMARKS
EDENTON        CLOUDY    53  51  91 CALM      29.96S
ELIZABETH CITY LGT RAIN  55  53  93 CALM      29.96R
KITTY HAWK     NOT AVBL
MANTEO         CLOUDY    54  53  96 CALM      29.97R

$$

NCZ045>047-081-094-103-104-231300-
CENTRAL COAST

CITY           SKY/WX    TMP DP  RH WIND       PRES   REMARKS
FRISCO         CLOUDY    62  57  83 S3        29.95R HAZE

$$

NCZ095-097-098-100-101-231300-
SOUTHERN COAST

CITY           SKY/WX    TMP DP  RH WIND       PRES   REMARKS
BEAUFORT       MOCLDY    56  54  93 NE5       29.93S
CEDAR ISLAND   NOT AVBL
JACKSONVILLE   CLOUDY    54  53  97 CALM      29.92R
PINEY ISLAND   CLOUDY   N/A N/A N/A NE7       29.93S
WILMINGTON     CLOUDY    58  56  93 E3        29.91R


$$

NCZ011>013-027>030-043-044-078>080-089-090>093-098-231300-
COASTAL PLAIN

CITY           SKY/WX    TMP DP  RH WIND       PRES   REMARKS
AHOSKIE          N/A     51  50  97 CALM      29.96R
CLINTON        CLOUDY    53  52  97 CALM      29.94R
ELIZABETHTOWN  CLOUDY    54  53  99 CALM      29.92R
GOLDSBORO      CLOUDY    53  53 100 CALM      29.92R
GREENVILLE     CLOUDY    50  50 100 CALM      29.96S
HAVELOCK       NOT AVBL
KENANSVILLE    NOT AVBL
KINSTON        PTCLDY    52  52 100 CALM      29.95R
NEW BERN       PTCLDY    51  51 100 CALM      29.95R
RICHLANDS      CLOUDY    53  52  96 CALM      29.93R
ROCKY MOUNT    CLOUDY    51  50  96 CALM      29.95R
WASHINGTON     PTCLDY    51  49  94 CALM      29.95S
WHITEVILLE     MOCLDY    55  53  92 CALM      29.91R

$$

AMZ130-135-150-152-154-156-158-170-250-252-270-ANZ085-086-088-633-658-670-231300-
MARINE OBSERVATIONS

STATION/POSITION TIME  TEMP    WIND        PRES    WAVE   SWELL
                       AIR SEA DIR/SP/G            HT/PER HT/PER
                 (UTC) (F)     (DEG/KT/KT) (MB)    (FT/S) (FT/S)
CHESAPEAKE LIGHT NOT AVBL
64 E VA BEACH    1150   58 54  190/  2/  2 1014.5    3/ 9   3/ 9
DUCK             1200   56 48   CALM  /  1 1014.0
2 E DUCK         1200      49                N/A     3/10   2/11
OREGON INLET     1200   59 54  160/  6/  8 1014.5
13E OREGON INLT  NOT AVBL
HATTERAS CG      1200   65 60  140/  4/  5 1013.7
DIAMOND BUOY     1150   69 74  180/  8/ 10 1014.0    4/10   3/10
CAPE LOOKOUT     1200   67     130/ 10/ 10 1013.0
BEAUFORT LAB     1200   58 55   40/  5/  5 1012.4
30 SE NEW RVR IN 1208   68     120/ 12/ 16 1012.9
30 SE NEW RVR IN 1213      69                N/A     4/ 6   2/11
27 SE WRIGHTSVLE 1208   66 65   70/  8/ 12 1012.0
5 SE WRIGHTSVLE  1208   61 58  110/  8/ 14 1012.5
225 S CAPE HAT   1150   68 70  110/ 19/ 23 1012.2    6/ 6   3/11
41 SE CHARLESTON 1150   71 69   80/ 14/ 16 1009.3    7/ 7   5/ 7

$$




USA.gov is the U.S. government's official web portal to all federal, state and local government web resources and services.